Regional Weather Roundup
Issued by NWS

Home | Current Version | Previous Version | Graphics & Text | Print | Product List | Glossary On
Versions: 1 2 3 4 5 6 7 8 9 10 11 12 13 14 15 16 17 18 19 20 21 22 23 24 25 26 27 28 29 30 31 32 33 34 35 36 37 38 39 40 41 42 43 44 45 46 47 48 49 50
000
ASUS43 KMPX 171401
RWRMN
WEATHER ROUNDUP FOR MINNESOTA
NATIONAL WEATHER SERVICE TWIN CITIES/CHANHASSEN MN
900 AM CDT THU APR 17 2014


NOTE: "FAIR" INDICATES FEW OR NO CLOUDS BELOW 12,000 FEET WITH NO
SIGNIFICANT WEATHER AND/OR OBSTRUCTIONS TO VISIBILITY. N/A MEANS
CURRENT SKY AND/OR WEATHER CONDITIONS ARE NOT AVAILABLE.

MNZ060>063-068>070-171500-
   Twin Cities Metro

CITY           SKY/WX    TMP DP  RH WIND       PRES   REMARKS
TWIN CITIES    CLOUDY    29  27  92 NW14      30.19R WCI  18
ST PAUL        CLOUDY    31  26  82 N15       30.20R WCI  20
CRYSTAL        CLOUDY    30  25  81 N10       30.19R WCI  21
EDEN PRAIRIE   CLOUDY    30  26  85 NW12      30.19R WCI  20
LAKEVILLE      CLOUDY    28  27  93 NW12      30.18R WCI  18
SOUTH ST PAUL  CLOUDY    33  30  89 NW12G20   30.18R WCI  25
LAKE ELMO      CLOUDY    32  30  93 N13       30.17R WCI  22
$$
MNZ001>005-007-008-013>017-022>024-027-028-171500-
   Northwest Minnesota

CITY           SKY/WX    TMP DP  RH WIND       PRES   REMARKS
BEMIDJI        SUNNY     28  10  48 N8        30.27S WCI  20
HALLOCK        CLOUDY    27  12  54 N5        30.37S WCI  21
ROSEAU         SUNNY     27  10  50 NE9       30.35S WCI  17
WARROAD        SUNNY     25   7  46 NE7       30.36R WCI  17
THIEF RVR FALL SUNNY     30   9  40 N3        30.34S
CROOKSTON      SUNNY     28  16  59 N7        30.36S WCI  21
FOSSTON        SUNNY     27  16  63 CALM      30.32R
DETROIT LAKES  SUNNY     30  19  64 N5        30.30R WCI  25
MOORHEAD       SUNNY     28  21  74 VRB8      30.35R WCI  20
PARK RAPIDS    SUNNY     27  15  61 N10       30.26R WCI  17
$$
MNZ006-009>011-018-025>026-171500-
   North Central Minnesota

CITY           SKY/WX    TMP DP  RH WIND       PRES   REMARKS
BAUDETTE       SUNNY     28   8  43 NE6       30.33R WCI  22
FLAG ISLAND    SUNNY     21   9  58 N6        30.35S WCI  14
INTL FALLS     SUNNY     25  12  58 NE9       30.29S WCI  15
WASKISH        SUNNY     30  14  51 N5        30.30S WCI  25
BIG FORK       SUNNY     28  16  59 N6        30.25S WCI  22
LONGVILLE      CLOUDY    28  18  64 N3        30.24S
GRAND RAPIDS   CLOUDY    27  18  69 N12       30.22R WCI  16
CRANE LAKE     LGT SNOW  25  21  86 N3        30.28F
ORR            CLOUDY    27  18  69 NE3       30.23S
COOK           CLOUDY    27  21  80 N3        30.23S
$$
MNZ012-019>021-037-171500-
   Northeast Minnesota

CITY           SKY/WX    TMP DP  RH WIND       PRES   REMARKS
DULUTH         CLOUDY    26  21  81 N14       30.15R WCI  14
ELY            LGT SNOW  25  21  86 N7        30.20S WCI  17
HIBBING        CLOUDY    27  20  75 N14       30.21R WCI  16
EVELETH        MIX PCPN  27  21  80 N9        30.21R WCI  17
DULUTH HARBOR  CLOUDY    30  25  80 N12       30.19R WCI  21
TWO HARBORS    CLOUDY    27  21  80 N6        30.14S HAZE    WCI  20
SILVER BAY     LGT SNOW  28  28 100 N8        30.14S WCI  20
GRAND MARAIS     N/A     31  29  92 NE18G25   30.19S WCI  19
G MARAIS ARPRT LGT SNOW  27  21  80 NE14G20   30.14S VSB 1   WCI  15
$$
MNZ029>031-032-039>041-046>048-054>057-064-171500-
   West Central Minnesota

CITY           SKY/WX    TMP DP  RH WIND       PRES   REMARKS
FERGUS FALLS   SUNNY     28  16  59 N6        30.30R WCI  22
WHEATON        SUNNY     30  25  80 NW8       30.35R WCI  23
MORRIS         SUNNY     27  19  74 N12       30.29R WCI  16
ALEXANDRIA     SUNNY     26  17  68 N9        30.27R WCI  17
ELBOW LAKE     FAIR      27  19  72 N7        30.30R WCI  20
WADENA         SUNNY     27  16  63 N10       30.26S WCI  17
GLENWOOD       SUNNY     27  18  69 N9        30.27R WCI  17
APPLETON       SUNNY     27  19  74 NW10      30.31R WCI  17
BENSON         SUNNY     25  18  74 N5        30.29R WCI  19
ORTONVILLE     SUNNY     25  18  74 NW8       30.32R WCI  16
MADISON        MOSUNNY   27  21  80 NW12      30.32R WCI  16
WILLMAR        FAIR      27  19  74 NW10      30.28R WCI  17
$$
MNZ033>034-036-042>043-049>051-058-059-171500-
   Central Minnesota

CITY           SKY/WX    TMP DP  RH WIND       PRES   REMARKS
ST CLOUD       CLOUDY    29  21  72 N8        30.23R WCI  21
SAUK CENTRE    FAIR      26  18  72 N9G16     30.26R WCI  16
PAYNESVILLE    SUNNY     25  19  77 NW9       30.25R WCI  16
AITKIN         CLOUDY    30  21  69 N9        30.20S WCI  22
PINE RIVER     CLOUDY    27  19  74 NW7       30.27R WCI  19
BRAINERD       PTSUNNY   32  20  61 N10       30.23R WCI  24
STAPLES        PTSUNNY   25  18  74 N8        30.25R WCI  16
LONG PRAIRIE   FAIR      25  18  74 NW8       30.25R WCI  16
LITTLE FALLS   PTSUNNY   30  21  69 NW7       30.23R WCI  23
LITCHFIELD     PTSUNNY   27  25  93 N12       30.24R WCI  16
BUFFALO        CLOUDY    30  24  79 N14       30.23R WCI  19
MAPLE LAKE     CLOUDY    30  26  83 N15       30.23R WCI  19
$$
MNZ037-044-045-052-053-171500-
   East Central Minnesota

CITY           SKY/WX    TMP DP  RH WIND       PRES   REMARKS
PRINCETON      CLOUDY    30  25  80 NW10G18   30.21R WCI  21
MORA           CLOUDY    30  23  74 N8        30.21R WCI  23
CAMBRIDGE      CLOUDY    30  23  74 NW12G18   30.18R WCI  21
RUSH CITY      CLOUDY    29  25  85 N10       30.19R WCI  20
MOOSE LAKE     CLOUDY    28  23  80 N10       30.17R WCI  19
HINCKLEY       CLOUDY    30  27  86 N12       30.18R WCI  21
CLOQUET        CLOUDY    27  21  80 N9        30.17R WCI  17
MCGREGOR       CLOUDY    28  23  80 N10       30.21R WCI  19
$$
MNZ071>073-080-081-089-090-097-098-171500-
   Southwest Minnesota

CITY           SKY/WX    TMP DP  RH WIND       PRES   REMARKS
MONTEVIDEO     SUNNY     28  25  86 N9        30.31R WCI  20
GRANITE FALLS  SUNNY     25  19  78 NW12      30.31R WCI  14
CANBY          MOSUNNY   25  20  80 NW10      30.32R WCI  15
MARSHALL       MOSUNNY   23  16  74 NW13      30.29R WCI  11
REDWOOD FALLS  SUNNY     25  19  78 NW13      30.27R WCI  14
OLIVIA         MOSUNNY   23  18  80 NW8       30.26R WCI  14
PIPESTONE        N/A     23  19  86 N6        30.27R WCI  16
WINDOM         SUNNY     25  21  86 NW15      30.25R WCI  12
WORTHINGTON    SUNNY     25  18  74 N15       30.27R WCI  12
JACKSON        MOSUNNY   27  21  80 N13G23    30.25R WCI  16
TRACY          SUNNY     25  20  82 NW10      30.28R WCI  15
SLAYTON        SUNNY     24  21  89 N13       30.27R WCI  12
$$
MNZ065>067-074>077-082>085-091>093-171500-
   South Central Minnesota

CITY           SKY/WX    TMP DP  RH WIND       PRES   REMARKS
MANKATO        CLOUDY    28  25  86 N15       30.23R WCI  17
NEW ULM        MOSUNNY   27  25  93 NW9       30.25R WCI  17
ST JAMES       CLOUDY    27  25  93 NW15      30.25R WCI  15
FAIRMONT       CLOUDY    27  21  80 N13       30.27R WCI  16
GLENCOE        CLOUDY    30  24  76 N12G21    30.22R WCI  21
FARIBAULT      CLOUDY    34  27  75 NW15      30.19R WCI  24
OWATONNA       CLOUDY    30  27  86 NW14      30.18R WCI  20
WASECA         CLOUDY    32  30  93 NW17      30.21R WCI  21
ALBERT LEA     CLOUDY    30  28  93 NW9       30.19R WCI  22
$$
MNZ078>079-086>088-094>096-171500-
   Southeast Minnesota

CITY           SKY/WX    TMP DP  RH WIND       PRES   REMARKS
ROCHESTER      CLOUDY    32  29  88 NW15      30.15R FOG     WCI  22
RED WING       CLOUDY    34  30  86 NW8       30.15R WCI  27
STANTON        CLOUDY    32  29  88 NW10G17   30.17R WCI  24
DODGE CENTER   CLOUDY    34  34 100 NW14      30.16R FOG     WCI  24
WINONA         CLOUDY    36  32  87 NW9       30.13R
AUSTIN         CLOUDY    30  28  93 NW12      30.17R WCI  21
PRESTON        CLOUDY    32  31  96 NW14      30.15R FOG     WCI  22
$$
ABBREVIATIONS USED IN REMARKS
   TC - TEMPERATURES IN CELSIUS
  WCI - WIND CHILL INDEX
   HX - HEAT INDEX
  VSB - VISIBILITY
$$


USA.gov is the U.S. government's official web portal to all federal, state and local government web resources and services.